weather.gov     
National Weather Service

Terminal Aerodrome Forecast
NWS Homepage
This page is being discontinued on March 12, 2014.
The same data is available at this site. Please update your bookmarks.
Thank you, and we apologize for the inconvenience.
Please send an email to SR-SRH.Webmaster@noaa.gov with any concerns.


Current Version
Previous Version:    01  02  03  04  05  06  07  08  09  10  11  12  13  14  15  16  17  18  19  20  21  22  23  24  25  26  27  28  29  30  
   31  32  33  34  35  36  37  38  39  40  41  42  43  44  45  46  47  48  49  
[Printable]
645
FTUS41 KOKX 272000 AAB
TAFGON
TAF AMD
KGON 272034Z 2721/2818 33018G30KT 1SM -SN BLSN SCT010 BKN020
      TEMPO 2721/2724 1/2SM SN BLSN BKN010
     FM280000 33015G25KT 6SM -SN BLSN BKN020
     FM280300 33012G20KT P6SM -SHSN BKN020
     FM281400 33013G22KT P6SM BKN025=


U.S. Dept. of Commerce
NOAA National Weather Service
1325 East West Highway
Silver Spring, MD 20910
E-mail: w-nws.webmaster@noaa.gov
Page last modified: May 16, 2007
NATIONAL WEATHER SERVICE: for Safety, for Work, for Fun - FOR LIFE